Regional Weather Roundup
Issued by NWS

Home | Current Version | Previous Version | Graphics & Text | Print | Product List | Glossary On
Versions: 1 2 3 4 5 6 7 8 9 10 11 12 13 14 15 16 17 18 19 20 21 22 23 24 25 26 27 28 29 30 31 32 33 34 35 36 37 38 39 40 41 42 43 44 45 46 47 48 49 50
000
ASUS45 KSLC 030010
RWRUT

UTAH REGIONAL WEATHER ROUNDUP
NATIONAL WEATHER SERVICE SALT LAKE CITY UT
500 PM MST FRI DEC 02 2016

UTZ001>011-023>025-030100-

NORTHERN UTAH

CITY           SKY/WX    TMP DP  RH WIND       PRES   REMARKS
BRIGHAM CITY     N/A     34  19  54 CALM      30.26S
HILL AFB       CLEAR     29  17  60 NW7       30.24R WCI  22
LOGAN          CLEAR     30  22  72 NW5       30.25S WCI  25
OGDEN          CLEAR     30  20  66 NW6       30.24R WCI  24
SALT LAKE CITY PTCLDY    34  22  61 NW8       30.25R WCI  27
TOOELE VALLEY  PTCLDY    27  21  80 S5        30.27R WCI  21
WENDOVER       CLEAR     36  12  38 N3        30.27S
HEBER CITY     CLEAR     25  14  63 CALM      30.18R
WEST JORDAN    CLEAR     30  25  80 NW9       30.25R WCI  22

$$

UTZ011>015-024>027-030100-

CENTRAL/NORTHEAST UTAH

CITY           SKY/WX    TMP DP  RH WIND       PRES   REMARKS
PROVO AIRPORT  PTCLDY    34  21  60 NW10      30.23R WCI  26
MOAB/CANYONLAN CLOUDY    40  15  36 NE9       30.09R WCI  34
DELTA          MOCLDY    32  19  59 N10       30.23R WCI  24
PRICE          CLEAR     30  12  47 NE8       30.11R WCI  22
ROOSEVELT      CLEAR     32  14  47 S3        30.19R
VERNAL         CLEAR     31  13  47 E6        30.17R WCI  25

$$

UTZ013>016-019>022-027-030100-

SOUTHERN UTAH

CITY           SKY/WX    TMP DP  RH WIND       PRES   REMARKS
BRYCE CANYON   CLOUDY    21  12  68 N13       30.08  WCI   9
CEDAR CITY     MOCLDY    28  15  58 N14G22    30.14R WCI  17
MILFORD        CLOUDY    30  22  72 N10       30.20R WCI  21
ST GEORGE      PTCLDY    46  16  29 NE21      30.13R
HANKSVILLE     CLOUDY    41  12  30 NE7       30.13R
BLANDING       CLOUDY    35  20  55 NW6       30.10R WCI  30

$$

REGIONAL REPORTS     COLORADO/ARIZONA

CITY           SKY/WX    TMP DP  RH WIND       PRES   REMARKS
CRAIG, CO      CLOUDY    24  15  68 W5        30.16R WCI  18
GRAND JUNCTION CLOUDY    36  24  62 NW6       30.11R WCI  31
RIFLE, CO      CLOUDY    31  20  63 NW18      30.12R WCI  19
MONTROSE, CO   CLOUDY    31  20  63 NW7       30.11R WCI  24
CORTEZ, CO     CLOUDY    33  24  69 SW8       30.02R WCI  26
COLORADO CITY  CLOUDY    37  21  52 NW14G20   30.09R WCI  29
PAGE, AZ       CLEAR     43  13  29 NE8       30.04R
GRAND CANYON   CLOUDY    34  17  50 NE9       30.02R WCI  27
KINGMAN, AZ    CLEAR     47  13  25 N22G28    30.02R
FLAGSTAFF, AZ  CLOUDY    28  20  71 E6        29.97R WCI  22

$$

REGIONAL REPORTS    NEVADA/IDAHO/WYOMING

CITY           SKY/WX    TMP DP  RH WIND       PRES   REMARKS
LAS VEGAS, NV  PTCLDY    53  12  19 N17G23    30.09S
ELY, NY        PTCLDY    26  12  55 N10       30.20R WCI  16
ELKO, NV       CLEAR     30  16  56 W7        30.28R WCI  23
POCATELLO, ID  CLOUDY    26  22  84 SW8       30.29F WCI  18
BURLEY, ID     CLEAR     31  22  69 W7        30.28F WCI  24
FORT BRIDGER,    N/A     22  11  63 W5        30.19R WCI  16
EVANSTON, WY   CLEAR     19   8  62 N6        30.16R WCI  11
ROCK SPRINGS,  MOCLDY    18  12  77 NW7       30.15R WCI   9

$$



USA.gov is the U.S. government's official web portal to all federal, state and local government web resources and services.